Location: Ambatotampy
(18.8181°S, 47.6186°E)
Time: 23:34:01
(UTC+00:00)

ATLAS 2AS CENTAUR R/B - Pass Details

Date: 21 January 2021
Orbit: 947 x 1265 km, 63.7° (Epoch: 13 February)

Event Time Altitude Azimuth Distance (km) Brightness Sun altitude
Exits shadow 00:21:23 54° 241° (WSW) 1,153 2.6 -27.4°
Drops below altitude 10° 00:27:22 10° 167° (SSE) 2,681 5.4 -26.3°
Sets 00:30:00 0° 162° (SSE) 3,637 6.3 -25.8°
